Location: Freistadt
(48.5112°N, 14.5013°E)
Time: 16:32:21
(UTC+02:00)

DOVE 4 - Visible Passes

Search period start: 27 March 2023 00:00
Search period end: 06 April 2023 00:00
Orbit: 586 x 791 km, 97.8° (Epoch: 27 March)

Date Brightness Start Highest point End Pass type
(mag) Time Alt. Az. Time Alt. Az. Time Alt. Az.
27 Mar ? 00:08:51 10° NNE 00:10:17 19° N 00:10:17 19° N visible
27 Mar ? 01:48:05 10° NNW 01:48:53 12° NW 01:48:53 12° NW visible
27 Mar ? 23:10:16 10° NNE 23:10:42 12° NE 23:10:42 12° NE visible
28 Mar ? 00:47:37 10° N 00:49:18 20° N 00:49:18 20° N visible
28 Mar ? 23:48:23 10° NNE 23:49:42 18° NNE 23:49:42 18° NNE visible
29 Mar ? 01:26:51 10° NNW 01:28:18 15° NNW 01:28:18 15° NNW visible
30 Mar ? 00:26:56 10° N 00:28:42 22° N 00:28:42 22° N visible
30 Mar ? 23:28:00 10° NNE 23:29:05 16° NNE 23:29:05 16° NNE visible
31 Mar ? 01:05:54 10° N 01:07:41 19° NNW 01:07:41 19° NNW visible
01 Apr ? 00:06:20 10° NNE 00:08:04 22° NNE 00:08:04 22° NNE visible
01 Apr ? 01:45:36 10° NNW 01:46:40 12° NW 01:46:40 12° NW visible
01 Apr ? 23:07:46 10° NNE 23:08:26 13° NE 23:08:26 13° NE visible
02 Apr ? 00:45:04 10° N 00:47:02 22° NNW 00:47:02 22° NNW visible
02 Apr ? 23:45:49 10° NNE 23:47:24 21° NNE 23:47:24 21° NNE visible
03 Apr ? 01:24:16 10° NNW 01:26:00 16° NW 01:26:00 16° NW visible
04 Apr ? 00:24:19 10° N 00:26:22 25° N 00:26:22 25° N visible
04 Apr ? 23:25:23 10° NNE 23:26:42 18° NE 23:26:42 18° NE visible
05 Apr ? 01:03:14 10° N 01:05:18 20° NNW 01:05:18 20° NNW visible
